Regional Weather Roundup
Issued by NWS Sioux Falls, SD

Home | Current Version | Previous Version | Text Only | Print | Product List | Glossary Off
Versions: 1 2 3 4 5 6 7 8 9 10 11 12 13 14 15 16 17 18 19 20 21 22 23 24 25 26 27 28 29 30 31 32 33 34 35 36 37 38 39 40 41 42 43 44 45 46 47 48 49 50

000
ASUS43 KFSD 210910
RWRFSD

WEATHER ROUNDUP FOR SE SOUTH DAKOTA/SW MINNESOTA/NW IOWA
NATIONAL WEATHER SERVICE SIOUX FALLS SD
300 AM CST TUE FEB 21 2017

NOTE: "FAIR" INDICATES FEW OR NO CLOUDS BELOW 12,000 FEET WITH NO
SIGNIFICANT WEATHER AND OR OBSTRUCTIONS TO VISIBILITY.


SDZ038>040-050-052>070-211000-
SOUTHEAST SOUTH DAKOTA

CITY           SKY/WX    TMP DP  RH WIND       PRES   REMARKS
BROOKINGS      CLEAR     33  32  96 S9        29.85F WCI  25
CHAMBERLAIN    CLOUDY    41  32  70 SW5       29.79F
HURON          CLEAR     35  33  92 S9        29.81F WCI  28
MADISON        FAIR      32  32 100 S8        29.87F WCI  25
MITCHELL       CLEAR     34  31  88 S9        29.85F WCI  27
SIOUX FALLS    CLEAR     30  30 100 CALM      29.89S FOG
WINNER         FAIR      46  28  49 S22       29.80F
YANKTON        CLEAR     36  32  87 S5        29.89F
$$

MNZ071-072-080-081-089-090-097-098-211000-
SOUTHWEST MINNESOTA

CITY           SKY/WX    TMP DP  RH WIND       PRES   REMARKS
FAIRMONT       CLEAR     34  33  96 SW5       29.91F WCI  30
JACKSON        PTCLDY    32  32 100 S7        29.90F WCI  26
LUVERNE        FOG       30  30 100 CALM      29.91R VSB 1/4
MARSHALL       CLEAR     36  30  79 SW8       29.85F
MONTEVIDEO     CLEAR     34  34 100 SW6       29.85F WCI  29
PIPESTONE      CLEAR     36 N/A N/A S3        29.87S FOG
REDWOOD FALLS  CLEAR     34  31  88 S7        29.86F WCI  28
TRACY          CLEAR     38  33  82 SW10      29.86F
WINDOM         CLEAR     34  34 100 CALM      29.89F FOG
WORTHINGTON    CLEAR     36  35  96 S7        29.89F
$$

IAZ001>003-012>014-020>022-031-032-NEZ013-014-SDZ071-211000-
NORTHWEST IOWA

CITY           SKY/WX    TMP DP  RH WIND       PRES   REMARKS
CHEROKEE       FOG       28  28 100 CALM      29.94F VSB 1/4
DENISON        FOG       32  32 100 CALM      29.94S VSB 1/4
ESTHERVILLE    CLEAR     35  35 100 SW8       29.91R WCI  29
LE MARS        CLEAR     32  32 100 CALM      29.93F FOG
SHELDON        MIX PCPN  32  32 100 SE7       29.89F VSB 1/4 WCI  26
SIOUX CITY     CLEAR     30  29  96 E3        29.94R FOG
SPENCER        CLEAR     34  33  96 S3        29.93R
STORM LAKE     CLEAR     39  37  93 SW8       29.94S
$$

ABBREVIATIONS USED IN REMARKS
   TC - TEMPERATURE IN CELSIUS
  WCI - WIND CHILL INDEX
   HX - HEAT INDEX
  VSB - VISIBILITY





USA.gov is the U.S. government's official web portal to all federal, state and local government web resources and services.